SCP
0 0 0 0 0 0 0 0 0 0 0 0 0 0 0 0 0 -0 -0 -0 -0 -0 0 0 -0 -0 0 0 -0 -0 -0 -0 -0 -0 -0 -0 -0 0 0 0 0 0 0 0
0 0 0 0 0 0 0 0 0 0 0 0 0 0 0 0 0 0 -0 -0 -0 -0 -0 0 0 0 -0 0 -0 -0 -0 -0 -0 -0 0 0 -0 -0 0 0 0 0 0 0
0 0 0 0 0 0 0 0 0 0 0 0 0 0 0 0 0 0 0 0 -0 -0 -0 -0 0 0 -0 0 -0 -0 -0 -0 -0 -0 0 0 0 0 0 0 0 0 0 0
0 0 0 0 0 0 0 0 0 0 0 0 0 0 0 0 0 0 0 -0 -0 -0 -0 -0 0 0 0 0 0 0 0 0 0 -0 -0 -0 0 0 0 0 0 0 0 0
0 0 0 0 0 0 0 0 0 0 0 0 0 0 -0 0 -0 0 -0 -0 -0 -0 -0 -0 -0 0 0 0 0 0 0 0 0 -0 0 0 0 0 0 0 0 0 0 0
0 0 0 0 0 0 0 0 0 0 0 0 0 0 -0 0 -0 0 0 0 0 -0 -0 -0 -0 0 0 0 0 0 0 0 0 0 0 0 0 0 0 0 0 0 0 0
0 0 0 0 0 0 0 0 0 0 0 0 0 0 -0 -0 0 0 0 -0 -0 -0 -0 -0 -0 -0 0 0 0 0 0 0 0 0 0 0 0 0 0 0 0 0 0 0
0 0 0 0 0 0 0 0 0 0 0 0 0 0 -0 -0 0 0 0 0 0 0 -0 -0 -0 -0 0 0 0 0 0 0 0 0 0 0 0 0 0 0 0 0 0 0
0 0 0 0 0 0 0 0 0 0 0 0 0 0 -0 -0 0 -0 0 0 0 0 0 -0 -0 0 0 0 0 0 0 0 0 0 0 0 0 0 0 0 0 0 0 0
0 0 0 0 0 0 0 0 0 0 0 0 0 0 -0 -0 0 0 0 0 0 0 0 0 -0 0 0 0 0 0 0 0 0 0 0 0 0 0 0 0 0 0 0 -0
0 0 0 0 0 0 0 0 0 0 0 0 0 0 0 -0 -0 0 0 0 0 0 0 -0 -0 0 0 0 0 0 0 0 0 0 0 0 0 0 0 0 0 0 -0 -0
0 0 0 0 0 0 0 0 0 0 0 0 0 0 0 0 0 0 -0 0 0 0 0 0 0 0 0 0 0 0 0 0 0 0 0 0 0 0 0 0 0 0 0 -0
0 0 0 0 0 0 0 0 0 0 0 0 0 0 -0 0 0 0 0 0 0 0 0 0 0 0 0 0 0 0 0 0 0 0 0 0 0 0 0 0 0 0 0 -0
0 0 0 0 0 0 0 0 0 0 0 0 0 0 0 -0 0 0 0 0 0 0 0 0 0 0 0 0 0 0 0 0 0 0 0 0 0 0 0 0 0 0 0 -0
0 0 0 0 0 0 0 0 0 0 0 0 0 0 0 0 0 0 0 -0 -0 0 0 0 0 0 0 0 0 0 0 0 0 0 0 0 0 0 0 0 0 0 0 0
0 0 0 0 0 0 0 0 0 0 0 0 0 0 0 0 0 0 0 0 -0 -0 0 0 0 0 0 0 0 0 0 0 0 0 0 0 0 0 0 0 0 0 0 0
0 0 -0 0 0 0 0 0 0 0 0 0 0 0 0 0 0 0 0 0 0 0 0 0 0 0 0 0 0 0 0 1 0 0 0 0 0 0 0 0 0 0 0 0
0 0 0 0 0 0 0 0 0 0 0 0 0 0 0 0 0 0 0 0 0 0 0 0 0 0 0 0 0 0 0 1 1 0 0 0 0 0 0 0 0 0 0 0
0 0 0 0 0 0 0 0 0 0 0 0 0 0 0 0 0 0 0 0 0 0 0 0 0 0 0 0 0 0 0 0 0 0 0 0 0 0 0 0 0 1 1 0
0 0 0 0 0 0 0 0 0 0 0 0 0 0 0 0 0 0 0 0 0 0 0 1 0 0 0 0 0 0 0 0 0 0 0 1 1 1 1 1 1 1 1 1
0 0 0 0 0 0 0 0 0 0 0 0 0 0 0 0 0 0 0 0 0 0 0 0 1 2 2 0 0 0 0 0 0 0 1 1 1 1 1 1 1 1 1 1
0 0 0 0 0 0 0 0 0 0 0 0 0 0 0 0 0 0 0 0 0 0 0 0 0 0 1 2 0 0 0 0 0 0 0 1 1 1 2 1 1 1 1 1
0 0 0 0 0 0 0 0 0 0 0 0 0 0 0 0 0 0 0 0 0 0 0 0 0 0 0 1 3 2 2 0 0 0 0 0 1 2 2 2 2 2 1 1
0 0 0 0 0 0 0 0 0 0 0 0 0 0 0 0 0 0 0 0 0 0 0 0 0 0 0 0 0 2 2 2 1 1 1 1 1 1 2 2 2 2 2 1
0 0 0 0 0 0 0 0 0 0 0 0 0 0 0 0 0 0 0 0 0 0 0 0 0 0 0 0 0 0 1 1 2 2 2 3 2 1 2 3 2 3 2 2
0 0 0 0 0 0 0 0 0 0 0 0 0 0 0 0 0 0 0 0 0 0 0 0 0 0 0 0 0 0 0 0 0 1 1 1 2 2 2 1 0 0 0 0
Wind_Speed_500mb
16 9 40 32 11 8 9 8 10 8 12 12 19 14 30 43 41 48 55 60 64 71 69 73 72 73 75 69 68 65 66 62 65 58 54 50 43 32 30 29 24 21 13 7
8 29 16 11 13 13 13 4 6 10 13 15 13 26 19 32 47 59 61 64 67 63 65 72 80 78 80 76 74 66 67 66 65 60 57 53 45 36 29 30 26 24 17 14
16 11 25 23 13 20 18 21 8 3 9 5 7 7 12 19 35 42 50 56 59 72 75 79 83 89 84 82 80 76 69 71 67 60 57 51 50 46 42 39 32 26 22 19
13 20 28 24 20 23 19 19 24 10 7 7 12 9 12 19 35 38 54 61 64 69 71 77 84 87 94 90 86 82 76 76 73 67 63 59 53 52 53 48 44 37 28 23
15 12 18 19 34 24 13 24 24 15 12 8 6 2 13 24 28 38 50 67 70 77 80 84 89 105 101 93 90 87 79 79 78 75 72 68 63 58 54 55 52 50 43 35
11 8 8 18 20 31 12 6 7 5 9 20 24 15 11 14 31 37 48 67 75 78 81 88 92 96 95 98 93 94 88 85 83 78 74 75 74 64 57 52 61 58 51 47
13 6 4 3 12 17 15 11 3 5 11 23 17 12 30 9 23 34 46 71 81 82 84 86 90 89 94 100 103 98 101 97 90 84 79 75 76 70 60 51 48 58 59 55
8 4 5 13 2 16 17 22 11 15 7 18 10 18 26 28 38 45 55 71 71 76 79 86 97 102 98 101 102 101 101 101 96 94 87 81 76 78 69 57 49 50 52 52
8 11 8 5 5 3 9 27 17 6 2 2 8 15 18 10 14 15 31 47 69 83 86 89 96 101 105 103 105 107 100 98 97 93 93 88 83 81 81 66 55 52 50 49
7 8 4 10 11 16 13 8 6 2 19 16 8 12 14 18 30 18 15 43 65 79 84 83 89 99 103 110 109 107 103 96 94 91 91 90 86 81 82 75 64 58 53 50
4 5 14 10 8 4 10 8 6 7 13 19 7 16 12 13 18 25 27 57 64 75 85 94 102 105 104 102 106 110 107 103 101 99 91 88 88 86 84 81 70 63 58 52
2 7 8 17 12 11 7 6 5 6 11 8 9 22 9 17 15 17 21 56 65 70 85 96 100 97 94 99 101 109 106 104 101 94 94 91 86 88 84 84 74 65 63 59
7 2 6 16 6 8 8 4 8 7 6 13 14 11 14 23 11 24 33 42 62 69 70 77 73 86 96 104 108 106 103 99 93 94 93 94 90 88 83 81 77 71 65 62
7 5 10 10 2 7 10 13 6 4 3 11 11 9 6 17 16 17 31 29 23 32 52 72 79 89 99 107 108 105 101 94 89 92 93 95 93 87 80 78 77 75 71 64
7 7 7 21 27 21 28 37 21 10 19 8 13 10 15 20 18 12 20 24 31 38 45 58 77 92 94 93 100 104 97 91 85 87 91 91 90 90 84 79 77 78 76 70
6 5 2 17 20 28 31 29 25 23 30 27 33 40 13 10 8 23 30 34 35 35 49 69 80 88 97 99 106 104 100 94 85 81 80 78 82 83 83 74 74 78 77 72
7 4 4 11 9 11 13 21 16 19 18 11 9 10 24 8 20 30 34 36 36 37 36 53 86 93 99 104 106 105 102 95 87 78 71 74 75 76 76 76 80 79 77 74
13 10 6 11 11 10 4 17 25 28 27 26 21 28 10 16 23 40 49 44 42 36 26 36 69 92 100 99 99 91 90 90 82 75 75 74 70 72 76 78 79 80 77 75
19 13 7 7 7 9 9 15 13 13 16 24 27 32 35 32 15 37 61 50 45 34 16 25 55 64 70 82 89 88 80 76 83 83 78 73 72 72 70 72 73 72 71 69
13 10 7 6 8 12 11 26 33 26 7 23 32 31 32 25 14 10 53 64 51 40 23 22 46 52 63 71 77 77 76 75 78 75 74 73 72 70 68 65 67 68 69 68
15 8 16 18 8 6 22 48 46 13 6 26 30 38 42 13 13 24 50 60 63 58 48 39 46 57 60 63 62 61 65 69 66 66 66 65 62 60 58 57 57 58 56 56
7 8 8 8 10 11 40 20 15 16 30 23 31 42 45 38 39 42 50 59 64 69 68 62 48 35 43 58 57 55 53 54 56 55 54 54 51 50 52 53 52 51 50 52
5 5 2 6 3 16 28 32 25 18 22 27 36 44 42 35 38 46 46 53 57 59 59 59 63 64 44 38 45 53 52 50 47 45 45 51 46 48 48 48 48 49 49 51
6 13 4 5 5 23 35 11 47 34 26 32 34 37 32 30 32 37 42 42 47 52 55 52 51 57 57 52 46 39 34 30 29 38 45 45 43 50 49 50 50 50 52 54
8 20 14 7 12 41 14 48 47 50 39 28 30 29 26 29 30 33 34 35 34 40 46 47 47 48 47 40 36 35 38 36 39 37 33 30 30 33 38 42 45 46 46 48
25 7 7 5 31 26 33 51 52 42 43 36 36 34 26 32 34 30 25 25 23 30 34 36 37 38 41 36 29 23 19 21 25 26 24 22 21 22 27 31 35 39 42 45
Wind_Direction_500mb
173 153 208 197 156 186 187 195 206 231 237 157 213 187 185 179 179 182 187 188 194 202 200 203 211 206 205 205 201 201 200 198 196 197 197 201 205 206 207 208 213 207 196 204
115 220 202 176 182 193 240 243 269 293 267 187 215 232 176 185 200 192 188 191 195 198 200 203 209 211 209 208 207 205 204 201 200 205 205 211 213 213 218 219 219 219 216 221
173 231 170 177 172 197 229 231 218 232 333 230 101 286 159 200 203 206 210 206 197 197 199 202 206 212 213 212 210 209 208 206 204 204 208 213 216 218 222 225 228 234 233 233
229 250 177 183 189 178 220 206 240 231 267 231 153 257 197 192 200 204 207 206 204 203 206 205 207 211 215 218 216 215 214 213 212 212 217 220 221 222 226 233 239 241 244 242
219 200 186 191 215 182 227 173 211 209 226 289 237 196 257 188 204 209 209 209 208 209 207 208 208 216 217 221 220 218 219 218 219 220 223 228 229 231 234 237 238 240 245 247
220 262 208 206 194 198 166 175 160 147 176 238 232 203 241 185 207 215 215 212 209 210 212 216 218 214 215 218 223 222 222 222 223 224 228 232 232 235 237 242 237 239 243 246
340 257 231 228 185 195 163 116 246 228 201 234 199 226 235 217 205 209 206 213 211 210 209 210 214 212 214 217 222 225 225 227 227 228 230 232 233 235 238 244 245 240 242 244
21 218 19 3 269 197 186 171 172 202 195 221 174 223 235 216 232 224 221 217 208 207 209 208 212 218 217 218 218 222 224 226 228 231 232 235 236 235 236 241 245 243 240 239
27 268 337 182 295 357 218 207 177 109 182 6 207 275 285 224 234 209 195 188 198 204 206 209 213 216 218 219 219 220 222 224 227 229 232 233 235 237 236 238 240 242 239 235
179 309 285 300 301 222 195 204 121 303 218 233 255 248 235 191 225 230 181 197 203 207 209 208 211 217 219 222 220 221 224 225 226 227 229 231 234 237 238 238 239 239 239 232
135 117 296 345 207 154 15 219 243 176 186 225 154 248 215 221 220 205 211 215 211 209 211 211 214 217 220 219 220 223 225 227 228 228 230 231 233 236 237 238 239 240 238 235
148 147 268 251 265 342 171 247 9 236 240 241 184 241 230 235 246 239 241 220 226 225 222 217 213 210 209 213 214 219 224 226 229 231 231 232 233 235 237 239 240 240 238 235
169 302 319 309 73 37 75 54 76 242 266 223 204 254 205 262 248 239 253 236 232 229 223 218 208 207 207 214 216 220 223 225 227 230 231 231 232 235 236 239 241 242 240 236
132 183 204 226 323 359 315 300 79 95 308 312 224 247 279 239 249 258 239 259 253 238 238 226 209 209 207 215 218 220 223 225 227 229 231 232 232 235 236 240 242 244 243 239
120 206 277 268 269 266 270 281 291 202 226 219 298 290 268 262 263 294 311 309 294 271 239 228 216 210 206 205 214 219 223 224 225 227 230 233 235 238 239 241 243 246 246 244
36 279 298 287 264 235 250 262 273 246 258 233 250 277 241 310 47 20 358 341 311 292 261 236 226 217 207 206 213 220 220 224 225 226 229 233 235 236 237 239 240 243 244 243
151 200 268 262 283 256 256 234 200 101 34 322 208 284 297 358 43 22 1 351 335 306 285 240 229 220 211 210 214 219 219 221 223 226 230 231 232 232 233 235 238 239 239 240
176 185 229 275 292 212 228 12 92 114 62 18 349 333 349 141 94 36 18 359 352 341 317 247 220 210 210 210 212 207 215 220 223 226 228 230 232 231 233 235 238 240 241 241
169 175 224 250 274 313 269 35 13 333 66 26 355 350 342 304 295 18 14 16 19 11 319 213 205 199 194 199 207 206 214 218 222 224 228 229 228 231 235 237 239 242 244 244
145 135 177 220 247 213 64 352 327 282 84 18 359 349 347 4 66 340 7 29 38 42 63 137 179 192 193 196 203 207 213 217 222 225 228 231 233 238 241 243 243 244 246 250
151 171 216 242 264 279 2 335 320 214 118 346 357 343 341 358 341 345 27 37 40 51 69 105 143 167 182 193 202 206 214 223 229 230 232 235 238 240 241 242 243 245 247 249
127 182 187 213 231 240 15 337 357 323 321 334 338 334 330 353 24 31 36 36 36 40 56 77 98 133 172 183 194 205 216 226 231 234 236 238 239 239 240 241 243 245 247 250
55 302 304 244 328 336 317 320 275 326 325 320 314 325 325 338 15 27 29 36 37 38 47 59 75 87 110 154 185 196 209 220 225 227 233 235 228 237 243 242 238 240 242 246
317 345 274 287 51 319 333 293 330 331 326 313 303 303 324 337 360 15 27 30 35 35 37 46 62 68 77 90 109 133 159 183 195 204 216 228 225 227 229 232 234 236 238 241
335 308 324 300 342 348 100 292 315 329 335 315 299 297 328 337 350 3 17 22 27 29 34 37 46 52 58 68 83 100 117 135 149 154 158 167 183 205 219 227 233 235 237 239
352 321 5 314 303 289 285 319 338 340 326 328 312 301 319 334 338 345 1 13 11 10 19 26 32 39 46 53 58 69 91 123 144 155 159 166 178 190 199 210 220 229 234 238
Wind_Speed_850mb
16 9 40 32 11 8 9 8 10 8 12 12 19 14 30 43 41 48 55 60 64 71 69 73 72 73 75 69 68 65 66 62 65 58 54 50 43 32 30 29 24 21 13 7
8 29 16 11 13 13 13 4 6 10 13 15 13 26 19 32 47 59 61 64 67 63 65 72 80 78 80 76 74 66 67 66 65 60 57 53 45 36 29 30 26 24 17 14
16 11 25 23 13 20 18 21 8 3 9 5 7 7 12 19 35 42 50 56 59 72 75 79 83 89 84 82 80 76 69 71 67 60 57 51 50 46 42 39 32 26 22 19
13 20 28 24 20 23 19 19 24 10 7 7 12 9 12 19 35 38 54 61 64 69 71 77 84 87 94 90 86 82 76 76 73 67 63 59 53 52 53 48 44 37 28 23
15 12 18 19 34 24 13 24 24 15 12 8 6 2 13 24 28 38 50 67 70 77 80 84 89 105 101 93 90 87 79 79 78 75 72 68 63 58 54 55 52 50 43 35
11 8 8 18 20 31 12 6 7 5 9 20 24 15 11 14 31 37 48 67 75 78 81 88 92 96 95 98 93 94 88 85 83 78 74 75 74 64 57 52 61 58 51 47
13 6 4 3 12 17 15 11 3 5 11 23 17 12 30 9 23 34 46 71 81 82 84 86 90 89 94 100 103 98 101 97 90 84 79 75 76 70 60 51 48 58 59 55
8 4 5 13 2 16 17 22 11 15 7 18 10 18 26 28 38 45 55 71 71 76 79 86 97 102 98 101 102 101 101 101 96 94 87 81 76 78 69 57 49 50 52 52
8 11 8 5 5 3 9 27 17 6 2 2 8 15 18 10 14 15 31 47 69 83 86 89 96 101 105 103 105 107 100 98 97 93 93 88 83 81 81 66 55 52 50 49
7 8 4 10 11 16 13 8 6 2 19 16 8 12 14 18 30 18 15 43 65 79 84 83 89 99 103 110 109 107 103 96 94 91 91 90 86 81 82 75 64 58 53 50
4 5 14 10 8 4 10 8 6 7 13 19 7 16 12 13 18 25 27 57 64 75 85 94 102 105 104 102 106 110 107 103 101 99 91 88 88 86 84 81 70 63 58 52
2 7 8 17 12 11 7 6 5 6 11 8 9 22 9 17 15 17 21 56 65 70 85 96 100 97 94 99 101 109 106 104 101 94 94 91 86 88 84 84 74 65 63 59
7 2 6 16 6 8 8 4 8 7 6 13 14 11 14 23 11 24 33 42 62 69 70 77 73 86 96 104 108 106 103 99 93 94 93 94 90 88 83 81 77 71 65 62
7 5 10 10 2 7 10 13 6 4 3 11 11 9 6 17 16 17 31 29 23 32 52 72 79 89 99 107 108 105 101 94 89 92 93 95 93 87 80 78 77 75 71 64
7 7 7 21 27 21 28 37 21 10 19 8 13 10 15 20 18 12 20 24 31 38 45 58 77 92 94 93 100 104 97 91 85 87 91 91 90 90 84 79 77 78 76 70
6 5 2 17 20 28 31 29 25 23 30 27 33 40 13 10 8 23 30 34 35 35 49 69 80 88 97 99 106 104 100 94 85 81 80 78 82 83 83 74 74 78 77 72
7 4 4 11 9 11 13 21 16 19 18 11 9 10 24 8 20 30 34 36 36 37 36 53 86 93 99 104 106 105 102 95 87 78 71 74 75 76 76 76 80 79 77 74
13 10 6 11 11 10 4 17 25 28 27 26 21 28 10 16 23 40 49 44 42 36 26 36 69 92 100 99 99 91 90 90 82 75 75 74 70 72 76 78 79 80 77 75
19 13 7 7 7 9 9 15 13 13 16 24 27 32 35 32 15 37 61 50 45 34 16 25 55 64 70 82 89 88 80 76 83 83 78 73 72 72 70 72 73 72 71 69
13 10 7 6 8 12 11 26 33 26 7 23 32 31 32 25 14 10 53 64 51 40 23 22 46 52 63 71 77 77 76 75 78 75 74 73 72 70 68 65 67 68 69 68
15 8 16 18 8 6 22 48 46 13 6 26 30 38 42 13 13 24 50 60 63 58 48 39 46 57 60 63 62 61 65 69 66 66 66 65 62 60 58 57 57 58 56 56
7 8 8 8 10 11 40 20 15 16 30 23 31 42 45 38 39 42 50 59 64 69 68 62 48 35 43 58 57 55 53 54 56 55 54 54 51 50 52 53 52 51 50 52
5 5 2 6 3 16 28 32 25 18 22 27 36 44 42 35 38 46 46 53 57 59 59 59 63 64 44 38 45 53 52 50 47 45 45 51 46 48 48 48 48 49 49 51
6 13 4 5 5 23 35 11 47 34 26 32 34 37 32 30 32 37 42 42 47 52 55 52 51 57 57 52 46 39 34 30 29 38 45 45 43 50 49 50 50 50 52 54
8 20 14 7 12 41 14 48 47 50 39 28 30 29 26 29 30 33 34 35 34 40 46 47 47 48 47 40 36 35 38 36 39 37 33 30 30 33 38 42 45 46 46 48
25 7 7 5 31 26 33 51 52 42 43 36 36 34 26 32 34 30 25 25 23 30 34 36 37 38 41 36 29 23 19 21 25 26 24 22 21 22 27 31 35 39 42 45
Wind_Direction_850mb
173 153 208 197 156 186 187 195 206 231 237 157 213 187 185 179 179 182 187 188 194 202 200 203 211 206 205 205 201 201 200 198 196 197 197 201 205 206 207 208 213 207 196 204
115 220 202 176 182 193 240 243 269 293 267 187 215 232 176 185 200 192 188 191 195 198 200 203 209 211 209 208 207 205 204 201 200 205 205 211 213 213 218 219 219 219 216 221
173 231 170 177 172 197 229 231 218 232 333 230 101 286 159 200 203 206 210 206 197 197 199 202 206 212 213 212 210 209 208 206 204 204 208 213 216 218 222 225 228 234 233 233
229 250 177 183 189 178 220 206 240 231 267 231 153 257 197 192 200 204 207 206 204 203 206 205 207 211 215 218 216 215 214 213 212 212 217 220 221 222 226 233 239 241 244 242
219 200 186 191 215 182 227 173 211 209 226 289 237 196 257 188 204 209 209 209 208 209 207 208 208 216 217 221 220 218 219 218 219 220 223 228 229 231 234 237 238 240 245 247
220 262 208 206 194 198 166 175 160 147 176 238 232 203 241 185 207 215 215 212 209 210 212 216 218 214 215 218 223 222 222 222 223 224 228 232 232 235 237 242 237 239 243 246
340 257 231 228 185 195 163 116 246 228 201 234 199 226 235 217 205 209 206 213 211 210 209 210 214 212 214 217 222 225 225 227 227 228 230 232 233 235 238 244 245 240 242 244
21 218 19 3 269 197 186 171 172 202 195 221 174 223 235 216 232 224 221 217 208 207 209 208 212 218 217 218 218 222 224 226 228 231 232 235 236 235 236 241 245 243 240 239
27 268 337 182 295 357 218 207 177 109 182 6 207 275 285 224 234 209 195 188 198 204 206 209 213 216 218 219 219 220 222 224 227 229 232 233 235 237 236 238 240 242 239 235
179 309 285 300 301 222 195 204 121 303 218 233 255 248 235 191 225 230 181 197 203 207 209 208 211 217 219 222 220 221 224 225 226 227 229 231 234 237 238 238 239 239 239 232
135 117 296 345 207 154 15 219 243 176 186 225 154 248 215 221 220 205 211 215 211 209 211 211 214 217 220 219 220 223 225 227 228 228 230 231 233 236 237 238 239 240 238 235
148 147 268 251 265 342 171 247 9 236 240 241 184 241 230 235 246 239 241 220 226 225 222 217 213 210 209 213 214 219 224 226 229 231 231 232 233 235 237 239 240 240 238 235
169 302 319 309 73 37 75 54 76 242 266 223 204 254 205 262 248 239 253 236 232 229 223 218 208 207 207 214 216 220 223 225 227 230 231 231 232 235 236 239 241 242 240 236
132 183 204 226 323 359 315 300 79 95 308 312 224 247 279 239 249 258 239 259 253 238 238 226 209 209 207 215 218 220 223 225 227 229 231 232 232 235 236 240 242 244 243 239
120 206 277 268 269 266 270 281 291 202 226 219 298 290 268 262 263 294 311 309 294 271 239 228 216 210 206 205 214 219 223 224 225 227 230 233 235 238 239 241 243 246 246 244
36 279 298 287 264 235 250 262 273 246 258 233 250 277 241 310 47 20 358 341 311 292 261 236 226 217 207 206 213 220 220 224 225 226 229 233 235 236 237 239 240 243 244 243
151 200 268 262 283 256 256 234 200 101 34 322 208 284 297 358 43 22 1 351 335 306 285 240 229 220 211 210 214 219 219 221 223 226 230 231 232 232 233 235 238 239 239 240
176 185 229 275 292 212 228 12 92 114 62 18 349 333 349 141 94 36 18 359 352 341 317 247 220 210 210 210 212 207 215 220 223 226 228 230 232 231 233 235 238 240 241 241
169 175 224 250 274 313 269 35 13 333 66 26 355 350 342 304 295 18 14 16 19 11 319 213 205 199 194 199 207 206 214 218 222 224 228 229 228 231 235 237 239 242 244 244
145 135 177 220 247 213 64 352 327 282 84 18 359 349 347 4 66 340 7 29 38 42 63 137 179 192 193 196 203 207 213 217 222 225 228 231 233 238 241 243 243 244 246 250
151 171 216 242 264 279 2 335 320 214 118 346 357 343 341 358 341 345 27 37 40 51 69 105 143 167 182 193 202 206 214 223 229 230 232 235 238 240 241 242 243 245 247 249
127 182 187 213 231 240 15 337 357 323 321 334 338 334 330 353 24 31 36 36 36 40 56 77 98 133 172 183 194 205 216 226 231 234 236 238 239 239 240 241 243 245 247 250
55 302 304 244 328 336 317 320 275 326 325 320 314 325 325 338 15 27 29 36 37 38 47 59 75 87 110 154 185 196 209 220 225 227 233 235 228 237 243 242 238 240 242 246
317 345 274 287 51 319 333 293 330 331 326 313 303 303 324 337 360 15 27 30 35 35 37 46 62 68 77 90 109 133 159 183 195 204 216 228 225 227 229 232 234 236 238 241
335 308 324 300 342 348 100 292 315 329 335 315 299 297 328 337 350 3 17 22 27 29 34 37 46 52 58 68 83 100 117 135 149 154 158 167 183 205 219 227 233 235 237 239
352 321 5 314 303 289 285 319 338 340 326 328 312 301 319 334 338 345 1 13 11 10 19 26 32 39 46 53 58 69 91 123 144 155 159 166 178 190 199 210 220 229 234 238